Time,TemperatureF,DewpointF,PressureIn,WindDirection,WindDirectionDegrees,WindSpeedMPH,WindSpeedGustMPH,Humidity,HourlyPrecipIn,Conditions,Clouds,dailyrainin,SoftwareType,DateUTC
2013-10-24 00:00:00,45.2,32.9,29.50,West,270,2.0,6.0,62,0.00,,,0.00,Wunderground PWS Mod,2013-10-24 04:00:00,
2013-10-24 00:05:00,45.2,32.5,29.50,WNW,288,2.0,6.0,61,0.00,,,0.00,Wunderground PWS Mod,2013-10-24 04:05:00,
2013-10-24 00:10:00,45.2,32.5,29.51,NW,305,2.0,6.0,61,0.00,,,0.00,Wunderground PWS Mod,2013-10-24 04:10:00,
2013-10-24 00:15:00,45.1,32.8,29.51,West,274,3.0,9.0,62,0.00,,,0.00,Wunderground PWS Mod,2013-10-24 04:15:00,
2013-10-24 00:19:00,45.1,32.8,29.51,WNW,288,3.0,9.0,62,0.00,,,0.00,Wunderground PWS Mod,2013-10-24 04:19:00,
2013-10-24 00:25:00,44.9,32.7,29.51,NW,326,2.0,9.0,62,0.00,,,0.00,Wunderground PWS Mod,2013-10-24 04:25:00,
2013-10-24 00:30:00,44.9,33.1,29.51,WSW,256,1.0,5.0,63,0.00,,,0.00,Wunderground PWS Mod,2013-10-24 04:30:00,
2013-10-24 00:35:00,44.8,33.0,29.51,NW,319,1.0,5.0,63,0.00,,,0.00,Wunderground PWS Mod,2013-10-24 04:35:00,
2013-10-24 00:40:00,44.8,33.0,29.51,West,274,1.0,5.0,63,0.00,,,0.00,Wunderground PWS Mod,2013-10-24 04:40:00,
2013-10-24 00:45:00,44.8,33.0,29.51,West,278,1.0,6.0,63,0.00,,,0.00,Wunderground PWS Mod,2013-10-24 04:45:00,
2013-10-24 00:49:00,44.6,32.8,29.51,WNW,295,1.0,6.0,63,0.00,,,0.00,Wunderground PWS Mod,2013-10-24 04:49:00,
2013-10-24 00:55:00,44.6,32.8,29.51,NW,304,1.0,6.0,63,0.00,,,0.00,Wunderground PWS Mod,2013-10-24 04:55:00,
2013-10-24 01:00:00,44.6,32.8,29.51,WSW,250,1.0,6.0,63,0.00,,,0.00,Wunderground PWS Mod,2013-10-24 05:00:00,
2013-10-24 01:05:00,44.6,33.2,29.52,West,263,1.0,5.0,64,0.00,,,0.00,Wunderground PWS Mod,2013-10-24 05:05:00,
2013-10-24 01:10:00,44.5,33.1,29.52,West,263,1.0,5.0,64,0.00,,,0.00,Wunderground PWS Mod,2013-10-24 05:10:00,
2013-10-24 01:15:00,44.3,32.9,29.52,West,263,0.0,0.0,64,0.00,,,0.00,Wunderground PWS Mod,2013-10-24 05:15:00,
2013-10-24 01:19:00,44.2,33.2,29.52,West,263,0.0,0.0,65,0.00,,,0.00,Wunderground PWS Mod,2013-10-24 05:19:00,
2013-10-24 01:25:00,44.1,33.1,29.51,West,263,0.0,0.0,65,0.00,,,0.00,Wunderground PWS Mod,2013-10-24 05:25:00,
2013-10-24 01:30:00,43.9,32.9,29.51,West,263,0.0,2.0,65,0.00,,,0.00,Wunderground PWS Mod,2013-10-24 05:30:00,
2013-10-24 01:39:00,43.5,33.3,29.51,West,263,0.0,2.0,67,0.00,,,0.00,Wunderground PWS Mod,2013-10-24 05:39:00,
2013-10-24 01:45:00,43.2,33.3,29.51,West,263,0.0,0.0,68,0.00,,,0.00,Wunderground PWS Mod,2013-10-24 05:45:00,
2013-10-24 01:50:00,43.1,33.6,29.51,West,263,0.0,0.0,69,0.00,,,0.00,Wunderground PWS Mod,2013-10-24 05:50:00,
2013-10-24 01:55:00,42.8,33.3,29.52,West,263,0.0,0.0,69,0.00,,,0.00,Wunderground PWS Mod,2013-10-24 05:55:00,
2013-10-24 02:00:00,42.5,33.4,29.52,West,263,0.0,0.0,70,0.00,,,0.00,Wunderground PWS Mod,2013-10-24 06:00:00,
2013-10-24 02:04:00,42.3,33.2,29.52,West,263,0.0,0.0,70,0.00,,,0.00,Wunderground PWS Mod,2013-10-24 06:04:00,
2013-10-24 02:10:00,42.1,33.4,29.52,West,263,0.0,0.0,71,0.00,,,0.00,Wunderground PWS Mod,2013-10-24 06:10:00,
2013-10-24 02:15:00,41.6,33.2,29.52,West,263,0.0,5.0,72,0.00,,,0.00,Wunderground PWS Mod,2013-10-24 06:15:00,
2013-10-24 02:20:00,41.5,33.1,29.52,West,263,0.0,5.0,72,0.00,,,0.00,Wunderground PWS Mod,2013-10-24 06:20:00,
2013-10-24 02:25:00,41.3,33.0,29.52,West,263,0.0,5.0,72,0.00,,,0.00,Wunderground PWS Mod,2013-10-24 06:25:00,
2013-10-24 02:30:00,41.3,33.0,29.52,West,263,1.0,3.0,72,0.00,,,0.00,Wunderground PWS Mod,2013-10-24 06:30:00,
2013-10-24 02:35:00,41.3,33.0,29.52,West,263,1.0,3.0,72,0.00,,,0.00,Wunderground PWS Mod,2013-10-24 06:35:00,
2013-10-24 02:40:00,41.3,33.0,29.53,West,263,0.0,3.0,72,0.00,,,0.00,Wunderground PWS Mod,2013-10-24 06:40:00,
2013-10-24 02:45:00,41.2,32.9,29.53,West,260,1.0,3.0,72,0.00,,,0.00,Wunderground PWS Mod,2013-10-24 06:45:00,
2013-10-24 02:50:00,41.2,32.9,29.52,WSW,250,1.0,3.0,72,0.00,,,0.00,Wunderground PWS Mod,2013-10-24 06:50:00,
2013-10-24 02:55:00,41.1,32.8,29.52,WSW,250,1.0,3.0,72,0.00,,,0.00,Wunderground PWS Mod,2013-10-24 06:55:00,
2013-10-24 03:00:00,40.9,32.9,29.52,WSW,250,1.0,4.0,73,0.00,,,0.00,Wunderground PWS Mod,2013-10-24 07:00:00,
2013-10-24 03:10:00,40.6,33.0,29.53,WSW,250,0.0,4.0,74,0.00,,,0.00,Wunderground PWS Mod,2013-10-24 07:10:00,
2013-10-24 03:15:00,40.3,32.7,29.53,WSW,250,0.0,0.0,74,0.00,,,0.00,Wunderground PWS Mod,2013-10-24 07:15:00,
2013-10-24 03:20:00,40.1,32.8,29.53,WSW,250,0.0,0.0,75,0.00,,,0.00,Wunderground PWS Mod,2013-10-24 07:20:00,
2013-10-24 03:25:00,39.9,32.9,29.53,WSW,250,0.0,0.0,76,0.00,,,0.00,Wunderground PWS Mod,2013-10-24 07:25:00,
2013-10-24 03:30:00,39.6,33.0,29.53,WSW,250,0.0,0.0,77,0.00,,,0.00,Wunderground PWS Mod,2013-10-24 07:30:00,
2013-10-24 03:35:00,39.5,32.9,29.53,WSW,250,0.0,0.0,77,0.00,,,0.00,Wunderground PWS Mod,2013-10-24 07:35:00,
2013-10-24 03:40:00,39.2,32.9,29.54,WSW,250,0.0,0.0,78,0.00,,,0.00,Wunderground PWS Mod,2013-10-24 07:40:00,
2013-10-24 03:45:00,38.9,32.9,29.54,WSW,250,0.0,0.0,79,0.00,,,0.00,Wunderground PWS Mod,2013-10-24 07:45:00,
2013-10-24 03:50:00,38.8,32.8,29.54,WSW,250,0.0,0.0,79,0.00,,,0.00,Wunderground PWS Mod,2013-10-24 07:50:00,
2013-10-24 03:55:00,38.6,33.0,29.54,WSW,250,0.0,0.0,80,0.00,,,0.00,Wunderground PWS Mod,2013-10-24 07:55:00,
2013-10-24 04:00:00,38.5,32.9,29.54,WSW,250,0.0,0.0,80,0.00,,,0.00,Wunderground PWS Mod,2013-10-24 08:00:00,
2013-10-24 04:10:00,38.3,32.7,29.55,WSW,250,0.0,0.0,80,0.00,,,0.00,Wunderground PWS Mod,2013-10-24 08:10:00,
2013-10-24 04:15:00,38.2,32.9,29.55,WSW,250,0.0,0.0,81,0.00,,,0.00,Wunderground PWS Mod,2013-10-24 08:15:00,
2013-10-24 04:20:00,38.0,32.7,29.56,WSW,250,0.0,0.0,81,0.00,,,0.00,Wunderground PWS Mod,2013-10-24 08:20:00,
2013-10-24 04:25:00,38.0,32.7,29.56,WSW,250,0.0,0.0,81,0.00,,,0.00,Wunderground PWS Mod,2013-10-24 08:25:00,
2013-10-24 04:30:00,38.0,32.7,29.56,WSW,250,0.0,5.0,81,0.00,,,0.00,Wunderground PWS Mod,2013-10-24 08:30:00,
2013-10-24 04:35:00,38.2,32.9,29.56,WSW,250,0.0,5.0,81,0.00,,,0.00,Wunderground PWS Mod,2013-10-24 08:35:00,
2013-10-24 04:40:00,38.2,32.9,29.56,WSW,250,1.0,5.0,81,0.00,,,0.00,Wunderground PWS Mod,2013-10-24 08:40:00,
2013-10-24 04:45:00,38.2,32.9,29.56,WSW,253,1.0,3.0,81,0.00,,,0.00,Wunderground PWS Mod,2013-10-24 08:45:00,
2013-10-24 04:50:00,38.2,32.9,29.56,West,270,1.0,3.0,81,0.00,,,0.00,Wunderground PWS Mod,2013-10-24 08:50:00,
2013-10-24 04:55:00,38.3,33.0,29.57,WSW,251,1.0,3.0,81,0.00,,,0.00,Wunderground PWS Mod,2013-10-24 08:55:00,
2013-10-24 05:00:00,38.5,32.9,29.57,WSW,258,1.0,6.0,80,0.00,,,0.00,Wunderground PWS Mod,2013-10-24 09:00:00,
2013-10-24 05:05:00,38.5,32.9,29.57,WSW,241,1.0,7.0,80,0.00,,,0.00,Wunderground PWS Mod,2013-10-24 09:05:00,
2013-10-24 05:10:00,38.6,33.0,29.57,WSW,247,2.0,6.0,80,0.00,,,0.00,Wunderground PWS Mod,2013-10-24 09:10:00,
2013-10-24 05:15:00,38.5,32.9,29.57,SW,224,1.0,6.0,80,0.00,,,0.00,Wunderground PWS Mod,2013-10-24 09:15:00,
2013-10-24 05:20:00,38.3,32.7,29.57,WSW,240,1.0,6.0,80,0.00,,,0.00,Wunderground PWS Mod,2013-10-24 09:20:00,
2013-10-24 05:25:00,38.5,32.6,29.59,WSW,239,2.0,6.0,79,0.00,,,0.00,Wunderground PWS Mod,2013-10-24 09:25:00,
2013-10-24 05:30:00,38.5,32.6,29.59,WNW,299,2.0,6.0,79,0.00,,,0.00,Wunderground PWS Mod,2013-10-24 09:30:00,
2013-10-24 05:35:00,38.5,32.2,29.59,WSW,258,1.0,6.0,78,0.00,,,0.00,Wunderground PWS Mod,2013-10-24 09:35:00,
2013-10-24 05:40:00,38.3,32.0,29.59,WSW,258,1.0,6.0,78,0.00,,,0.00,Wunderground PWS Mod,2013-10-24 09:40:00,
2013-10-24 05:45:00,38.2,31.9,29.59,WSW,258,0.0,2.0,78,0.00,,,0.00,Wunderground PWS Mod,2013-10-24 09:45:00,
2013-10-24 05:50:00,38.2,31.9,29.59,WSW,258,0.0,2.0,78,0.00,,,0.00,Wunderground PWS Mod,2013-10-24 09:50:00,
2013-10-24 05:55:00,38.0,31.7,29.59,WSW,258,0.0,2.0,78,0.00,,,0.00,Wunderground PWS Mod,2013-10-24 09:55:00,
2013-10-24 06:00:00,37.9,32.0,29.59,WSW,258,0.0,0.0,79,0.00,,,0.00,Wunderground PWS Mod,2013-10-24 10:00:00,
2013-10-24 06:10:00,37.8,32.2,29.61,WSW,258,0.0,0.0,80,0.00,,,0.00,Wunderground PWS Mod,2013-10-24 10:10:00,
2013-10-24 06:15:00,37.8,32.2,29.61,West,260,0.0,2.0,80,0.00,,,0.00,Wunderground PWS Mod,2013-10-24 10:15:00,
2013-10-24 06:20:00,37.6,32.0,29.61,West,260,0.0,2.0,80,0.00,,,0.00,Wunderground PWS Mod,2013-10-24 10:20:00,
2013-10-24 06:25:00,37.5,31.9,29.61,West,260,0.0,2.0,80,0.00,,,0.00,Wunderground PWS Mod,2013-10-24 10:25:00,
2013-10-24 06:30:00,37.5,31.9,29.61,West,260,0.0,3.0,80,0.00,,,0.00,Wunderground PWS Mod,2013-10-24 10:30:00,
2013-10-24 06:35:00,37.5,31.9,29.61,West,260,0.0,3.0,80,0.00,,,0.00,Wunderground PWS Mod,2013-10-24 10:35:00,
2013-10-24 06:40:00,37.3,31.7,29.61,West,260,0.0,3.0,80,0.00,,,0.00,Wunderground PWS Mod,2013-10-24 10:40:00,
2013-10-24 06:45:00,37.2,31.6,29.61,West,260,0.0,0.0,80,0.00,,,0.00,Wunderground PWS Mod,2013-10-24 10:45:00,
2013-10-24 06:55:00,36.9,31.6,29.61,West,260,0.0,0.0,81,0.00,,,0.00,Wunderground PWS Mod,2013-10-24 10:55:00,
2013-10-24 07:00:00,36.6,31.3,29.61,West,260,0.0,0.0,81,0.00,,,0.00,Wunderground PWS Mod,2013-10-24 11:00:00,
2013-10-24 07:10:00,36.5,31.5,29.62,West,260,255.0,255.0,82,0.00,,,0.00,Wunderground PWS Mod,2013-10-24 11:10:00,
2013-10-24 07:15:00,-999.9,-99.9,29.62,North,32767,255.0,255.0,255,-99.99,,,0.00,Wunderground PWS Mod,2013-10-24 11:15:00,
2013-10-24 07:20:00,-999.9,-99.9,29.62,North,32767,255.0,255.0,255,-99.99,,,0.00,Wunderground PWS Mod,2013-10-24 11:20:00,
2013-10-24 07:25:00,-999.9,-99.9,29.61,North,32767,255.0,255.0,255,-99.99,,,0.00,Wunderground PWS Mod,2013-10-24 11:25:00,
2013-10-24 07:30:00,-999.9,-99.9,29.61,North,32767,255.0,255.0,255,-99.99,,,0.00,Wunderground PWS Mod,2013-10-24 11:30:00,
2013-10-24 07:35:00,-999.9,-99.9,29.61,North,32767,255.0,255.0,255,-99.99,,,0.00,Wunderground PWS Mod,2013-10-24 11:35:00,
2013-10-24 07:40:00,-999.9,-99.9,29.62,North,32767,255.0,255.0,255,-99.99,,,0.00,Wunderground PWS Mod,2013-10-24 11:40:00,
2013-10-24 07:45:00,-999.9,-99.9,29.62,North,32767,255.0,255.0,255,-99.99,,,0.00,Wunderground PWS Mod,2013-10-24 11:45:00,
2013-10-24 07:50:00,-999.9,-99.9,29.63,North,32767,255.0,255.0,255,-99.99,,,0.00,Wunderground PWS Mod,2013-10-24 11:50:00,
2013-10-24 07:55:00,-999.9,-99.9,29.63,North,32767,255.0,255.0,255,-99.99,,,0.00,Wunderground PWS Mod,2013-10-24 11:55:00,
2013-10-24 08:00:00,-999.9,-99.9,29.63,North,32767,255.0,255.0,255,-99.99,,,0.00,Wunderground PWS Mod,2013-10-24 12:00:00,
2013-10-24 08:10:00,35.9,32.1,29.64,West,260,255.0,255.0,86,0.00,,,0.00,Wunderground PWS Mod,2013-10-24 12:10:00,
2013-10-24 08:15:00,36.0,32.2,29.64,West,260,0.0,0.0,86,0.00,,,0.00,Wunderground PWS Mod,2013-10-24 12:15:00,
2013-10-24 08:20:00,36.0,32.2,29.64,West,260,255.0,255.0,86,0.00,,,0.00,Wunderground PWS Mod,2013-10-24 12:20:00,
2013-10-24 08:25:00,36.0,32.2,29.65,West,260,255.0,255.0,86,0.00,,,0.00,Wunderground PWS Mod,2013-10-24 12:25:00,
2013-10-24 08:30:00,-999.9,-99.9,29.65,North,32767,255.0,255.0,255,-99.99,,,0.00,Wunderground PWS Mod,2013-10-24 12:30:00,
2013-10-24 08:35:00,-999.9,-99.9,29.65,North,32767,255.0,255.0,255,-99.99,,,0.00,Wunderground PWS Mod,2013-10-24 12:35:00,
2013-10-24 08:40:00,-999.9,-99.9,29.65,North,32767,255.0,255.0,255,-99.99,,,0.00,Wunderground PWS Mod,2013-10-24 12:40:00,
2013-10-24 08:45:00,-999.9,-99.9,29.65,North,32767,255.0,255.0,255,-99.99,,,0.00,Wunderground PWS Mod,2013-10-24 12:45:00,
2013-10-24 08:50:00,-999.9,-99.9,29.65,North,32767,255.0,255.0,255,-99.99,,,0.00,Wunderground PWS Mod,2013-10-24 12:50:00,
2013-10-24 08:55:00,-999.9,-99.9,29.65,North,32767,255.0,255.0,255,-99.99,,,0.00,Wunderground PWS Mod,2013-10-24 12:55:00,
2013-10-24 09:00:00,-999.9,-99.9,29.65,North,32767,255.0,255.0,255,-99.99,,,0.00,Wunderground PWS Mod,2013-10-24 13:00:00,
2013-10-24 09:05:00,-999.9,-99.9,29.65,North,32767,255.0,255.0,255,-99.99,,,0.00,Wunderground PWS Mod,2013-10-24 13:05:00,
2013-10-24 09:10:00,-999.9,-99.9,29.66,North,32767,255.0,255.0,255,-99.99,,,0.00,Wunderground PWS Mod,2013-10-24 13:10:00,
2013-10-24 09:15:00,43.1,31.4,29.66,SW,236,255.0,255.0,63,0.00,,,0.00,Wunderground PWS Mod,2013-10-24 13:15:00,
2013-10-24 09:20:00,43.2,31.1,29.66,WSW,239,3.0,9.0,62,0.00,,,0.00,Wunderground PWS Mod,2013-10-24 13:20:00,
2013-10-24 09:25:00,43.5,31.3,29.66,WSW,254,4.0,4.0,62,0.00,,,0.00,Wunderground PWS Mod,2013-10-24 13:25:00,
2013-10-24 09:30:00,44.2,31.2,29.66,WSW,240,2.0,10.0,60,0.00,,,0.00,Wunderground PWS Mod,2013-10-24 13:30:00,
2013-10-24 09:35:00,43.9,31.7,29.66,WNW,289,2.0,9.0,62,0.00,,,0.00,Wunderground PWS Mod,2013-10-24 13:35:00,
2013-10-24 09:40:00,44.2,32.0,29.66,West,263,2.0,9.0,62,0.00,,,0.00,Wunderground PWS Mod,2013-10-24 13:40:00,
2013-10-24 09:45:00,44.6,31.1,29.66,WSW,239,2.0,8.0,59,0.00,,,0.00,Wunderground PWS Mod,2013-10-24 13:45:00,
2013-10-24 09:50:00,45.4,31.5,29.66,WSW,250,2.0,8.0,58,0.00,,,0.00,Wunderground PWS Mod,2013-10-24 13:50:00,
2013-10-24 09:55:00,46.2,30.9,29.66,WSW,254,2.0,8.0,55,0.00,,,0.00,Wunderground PWS Mod,2013-10-24 13:55:00,
2013-10-24 10:00:00,46.1,31.3,29.66,WSW,240,2.0,11.0,56,0.00,,,0.00,Wunderground PWS Mod,2013-10-24 14:00:00,
2013-10-24 10:05:00,46.8,30.6,29.66,WSW,254,2.0,11.0,53,0.00,,,0.00,Wunderground PWS Mod,2013-10-24 14:05:00,
2013-10-24 10:10:00,47.7,31.9,29.66,WNW,289,1.0,11.0,54,0.00,,,0.00,Wunderground PWS Mod,2013-10-24 14:10:00,
2013-10-24 10:15:00,47.9,31.6,29.66,NW,309,1.0,6.0,53,0.00,,,0.00,Wunderground PWS Mod,2013-10-24 14:15:00,
2013-10-24 10:20:00,48.2,29.9,29.66,WNW,299,2.0,3.0,49,0.00,,,0.00,Wunderground PWS Mod,2013-10-24 14:20:00,
2013-10-24 10:25:00,48.5,31.7,29.66,West,274,2.0,3.0,52,0.00,,,0.00,Wunderground PWS Mod,2013-10-24 14:25:00,
2013-10-24 10:30:00,49.2,30.3,29.66,WSW,250,1.0,10.0,48,0.00,,,0.00,Wunderground PWS Mod,2013-10-24 14:30:00,
2013-10-24 10:35:00,49.2,30.3,29.66,SW,236,1.0,10.0,48,0.00,,,0.00,Wunderground PWS Mod,2013-10-24 14:35:00,
2013-10-24 10:40:00,48.2,28.9,29.66,NW,323,3.0,10.0,47,0.00,,,0.00,Wunderground PWS Mod,2013-10-24 14:40:00,
2013-10-24 10:45:00,47.9,29.6,29.66,SW,229,3.0,17.0,49,0.00,,,0.00,Wunderground PWS Mod,2013-10-24 14:45:00,
2013-10-24 10:55:00,47.9,29.1,29.66,West,264,3.0,17.0,48,0.00,,,0.00,Wunderground PWS Mod,2013-10-24 14:55:00,
2013-10-24 11:00:00,48.2,30.4,29.66,WSW,244,3.0,12.0,50,0.00,,,0.00,Wunderground PWS Mod,2013-10-24 15:00:00,
2013-10-24 11:05:00,48.5,29.2,29.66,WSW,240,2.0,12.0,47,0.00,,,0.00,Wunderground PWS Mod,2013-10-24 15:05:00,
2013-10-24 11:10:00,48.3,29.5,29.66,WNW,299,3.0,12.0,48,0.00,,,0.00,Wunderground PWS Mod,2013-10-24 15:10:00,
2013-10-24 11:15:00,48.2,29.4,29.66,WSW,254,3.0,11.0,48,0.00,,,0.00,Wunderground PWS Mod,2013-10-24 15:15:00,
2013-10-24 11:20:00,48.9,29.5,29.66,WSW,248,2.0,11.0,47,0.00,,,0.00,Wunderground PWS Mod,2013-10-24 15:20:00,
2013-10-24 11:25:00,49.6,30.2,29.66,West,281,1.0,11.0,47,0.00,,,0.00,Wunderground PWS Mod,2013-10-24 15:25:00,
2013-10-24 11:30:00,50.7,31.2,29.66,NW,320,1.0,8.0,47,0.00,,,0.00,Wunderground PWS Mod,2013-10-24 15:30:00,
2013-10-24 11:35:00,50.8,29.6,29.66,SW,236,1.0,8.0,44,0.00,,,0.00,Wunderground PWS Mod,2013-10-24 15:35:00,
2013-10-24 11:40:00,51.1,29.9,29.65,SW,230,1.0,10.0,44,0.00,,,0.00,Wunderground PWS Mod,2013-10-24 15:40:00,
2013-10-24 11:45:00,51.0,29.3,29.65,West,264,2.0,12.0,43,0.00,,,0.00,Wunderground PWS Mod,2013-10-24 15:45:00,
2013-10-24 11:55:00,51.1,29.4,29.65,SSW,208,1.0,12.0,43,0.00,,,0.00,Wunderground PWS Mod,2013-10-24 15:55:00,
2013-10-24 12:00:00,51.7,28.7,29.65,SW,220,1.0,6.0,41,0.00,,,0.00,Wunderground PWS Mod,2013-10-24 16:00:00,
2013-10-24 12:10:00,50.8,27.3,29.65,SW,234,2.0,6.0,40,0.00,,,0.00,Wunderground PWS Mod,2013-10-24 16:10:00,
2013-10-24 12:15:00,50.8,27.3,29.65,WSW,253,2.0,14.0,40,0.00,,,0.00,Wunderground PWS Mod,2013-10-24 16:15:00,
2013-10-24 12:20:00,51.4,27.2,29.63,SW,233,2.0,14.0,39,0.00,,,0.00,Wunderground PWS Mod,2013-10-24 16:20:00,
2013-10-24 12:25:00,51.0,27.5,29.63,West,280,3.0,14.0,40,0.00,,,0.00,Wunderground PWS Mod,2013-10-24 16:25:00,
2013-10-24 12:30:00,51.0,26.3,29.63,West,261,4.0,12.0,38,0.00,,,0.00,Wunderground PWS Mod,2013-10-24 16:30:00,
2013-10-24 12:35:00,51.0,26.3,29.63,West,265,4.0,12.0,38,0.00,,,0.00,Wunderground PWS Mod,2013-10-24 16:35:00,
2013-10-24 12:40:00,50.7,25.3,29.63,SW,222,4.0,12.0,37,0.00,,,0.00,Wunderground PWS Mod,2013-10-24 16:40:00,
2013-10-24 12:45:00,51.4,26.0,29.63,SW,227,3.0,17.0,37,0.00,,,0.00,Wunderground PWS Mod,2013-10-24 16:45:00,
2013-10-24 12:50:00,51.7,26.2,29.63,WSW,256,3.0,17.0,37,0.00,,,0.00,Wunderground PWS Mod,2013-10-24 16:50:00,
2013-10-24 13:00:00,49.6,24.4,29.63,NNW,346,6.0,16.0,37,0.00,,,0.00,Wunderground PWS Mod,2013-10-24 17:00:00,
2013-10-24 13:05:00,49.6,25.0,29.63,SW,236,4.0,16.0,38,0.00,,,0.00,Wunderground PWS Mod,2013-10-24 17:05:00,
2013-10-24 13:10:00,49.9,24.0,29.62,SW,227,4.0,16.0,36,0.00,,,0.00,Wunderground PWS Mod,2013-10-24 17:10:00,
2013-10-24 13:15:00,50.1,24.8,29.62,WSW,240,4.0,17.0,37,0.00,,,0.00,Wunderground PWS Mod,2013-10-24 17:15:00,
2013-10-24 13:20:00,50.4,24.4,29.62,WNW,294,5.0,17.0,36,0.00,,,0.00,Wunderground PWS Mod,2013-10-24 17:20:00,
2013-10-24 13:25:00,50.1,24.8,29.62,SSW,213,4.0,17.0,37,0.00,,,0.00,Wunderground PWS Mod,2013-10-24 17:25:00,
2013-10-24 13:30:00,49.9,24.0,29.62,WSW,258,4.0,18.0,36,0.00,,,0.00,Wunderground PWS Mod,2013-10-24 17:30:00,
2013-10-24 13:35:00,49.9,24.6,29.62,SW,230,3.0,18.0,37,0.00,,,0.00,Wunderground PWS Mod,2013-10-24 17:35:00,
2013-10-24 13:40:00,50.4,25.1,29.62,West,280,3.0,18.0,37,0.00,,,0.00,Wunderground PWS Mod,2013-10-24 17:40:00,
2013-10-24 13:45:00,50.7,25.3,29.62,NW,323,3.0,13.0,37,0.00,,,0.00,Wunderground PWS Mod,2013-10-24 17:45:00,
2013-10-24 13:50:00,51.0,25.6,29.62,NW,306,3.0,13.0,37,0.00,,,0.00,Wunderground PWS Mod,2013-10-24 17:50:00,
2013-10-24 13:55:00,51.6,24.1,29.62,WSW,241,3.0,13.0,34,0.00,,,0.00,Wunderground PWS Mod,2013-10-24 17:55:00,
2013-10-24 14:00:00,51.4,23.2,29.62,SW,233,5.0,17.0,33,0.00,,,0.00,Wunderground PWS Mod,2013-10-24 18:00:00,
2013-10-24 14:05:00,51.4,23.2,29.62,NNW,343,5.0,17.0,33,0.00,,,0.00,Wunderground PWS Mod,2013-10-24 18:05:00,
2013-10-24 14:10:00,51.3,25.2,29.62,West,261,3.0,17.0,36,0.00,,,0.00,Wunderground PWS Mod,2013-10-24 18:10:00,
2013-10-24 14:15:00,51.9,24.4,29.62,WSW,254,2.0,12.0,34,0.00,,,0.00,Wunderground PWS Mod,2013-10-24 18:15:00,
2013-10-24 14:20:00,51.1,24.4,29.62,WNW,282,3.0,12.0,35,0.00,,,0.00,Wunderground PWS Mod,2013-10-24 18:20:00,
2013-10-24 14:25:00,50.2,24.2,29.62,SW,232,4.0,12.0,36,0.00,,,0.00,Wunderground PWS Mod,2013-10-24 18:25:00,
2013-10-24 14:30:00,49.8,23.9,29.62,NW,306,3.0,13.0,36,0.00,,,0.00,Wunderground PWS Mod,2013-10-24 18:30:00,
2013-10-24 14:40:00,49.6,24.4,29.63,WSW,237,4.0,13.0,37,0.00,,,0.00,Wunderground PWS Mod,2013-10-24 18:40:00,
2013-10-24 14:45:00,50.1,25.5,29.63,WNW,295,2.0,9.0,38,0.00,,,0.00,Wunderground PWS Mod,2013-10-24 18:45:00,
2013-10-24 14:50:00,50.5,23.8,29.62,SSW,208,2.0,9.0,35,0.00,,,0.00,Wunderground PWS Mod,2013-10-24 18:50:00,
2013-10-24 14:55:00,50.8,23.4,29.62,West,281,2.0,9.0,34,0.00,,,0.00,Wunderground PWS Mod,2013-10-24 18:55:00,
2013-10-24 15:00:00,50.5,23.8,29.62,SSW,206,2.0,7.0,35,0.00,,,0.00,Wunderground PWS Mod,2013-10-24 19:00:00,
2013-10-24 15:05:00,50.7,22.6,29.62,WNW,291,2.0,7.0,33,0.00,,,0.00,Wunderground PWS Mod,2013-10-24 19:05:00,
2013-10-24 15:10:00,50.4,22.3,29.63,WSW,254,3.0,7.0,33,0.00,,,0.00,Wunderground PWS Mod,2013-10-24 19:10:00,
2013-10-24 15:15:00,49.9,21.2,29.63,NW,315,4.0,14.0,32,0.00,,,0.00,Wunderground PWS Mod,2013-10-24 19:15:00,
2013-10-24 15:20:00,49.8,21.8,29.63,WSW,237,5.0,12.0,33,0.00,,,0.00,Wunderground PWS Mod,2013-10-24 19:20:00,
2013-10-24 15:30:00,50.1,21.3,29.63,West,272,5.0,14.0,32,0.00,,,0.00,Wunderground PWS Mod,2013-10-24 19:30:00,
2013-10-24 15:40:00,50.4,20.9,29.63,SSW,196,3.0,14.0,31,0.00,,,0.00,Wunderground PWS Mod,2013-10-24 19:40:00,
2013-10-24 15:45:00,50.2,20.7,29.63,NW,322,3.0,11.0,31,0.00,,,0.00,Wunderground PWS Mod,2013-10-24 19:45:00,
2013-10-24 15:50:00,49.8,19.6,29.64,WNW,282,3.0,11.0,30,0.00,,,0.00,Wunderground PWS Mod,2013-10-24 19:50:00,
2013-10-24 15:55:00,49.8,21.8,29.64,West,261,3.0,11.0,33,0.00,,,0.00,Wunderground PWS Mod,2013-10-24 19:55:00,
2013-10-24 16:00:00,49.9,20.4,29.64,WSW,243,2.0,11.0,31,0.00,,,0.00,Wunderground PWS Mod,2013-10-24 20:00:00,
2013-10-24 16:05:00,49.9,21.2,29.64,WSW,258,2.0,11.0,32,0.00,,,0.00,Wunderground PWS Mod,2013-10-24 20:05:00,
2013-10-24 16:10:00,49.8,19.6,29.64,WSW,258,3.0,11.0,30,0.00,,,0.00,Wunderground PWS Mod,2013-10-24 20:10:00,
2013-10-24 16:15:00,49.6,21.6,29.64,WSW,257,3.0,17.0,33,0.00,,,0.00,Wunderground PWS Mod,2013-10-24 20:15:00,
2013-10-24 16:20:00,49.5,20.8,29.64,WNW,291,4.0,17.0,32,0.00,,,0.00,Wunderground PWS Mod,2013-10-24 20:20:00,
2013-10-24 16:25:00,49.4,20.7,29.64,West,280,4.0,17.0,32,0.00,,,0.00,Wunderground PWS Mod,2013-10-24 20:25:00,
2013-10-24 16:30:00,49.4,21.5,29.64,West,274,1.0,8.0,33,0.00,,,0.00,Wunderground PWS Mod,2013-10-24 20:30:00,
2013-10-24 16:40:00,49.2,20.6,29.64,WSW,244,1.0,9.0,32,0.00,,,0.00,Wunderground PWS Mod,2013-10-24 20:40:00,
2013-10-24 16:45:00,49.1,21.2,29.64,WSW,253,3.0,13.0,33,0.00,,,0.00,Wunderground PWS Mod,2013-10-24 20:45:00,
2013-10-24 16:50:00,48.9,20.3,29.64,WNW,287,4.0,13.0,32,0.00,,,0.00,Wunderground PWS Mod,2013-10-24 20:50:00,
2013-10-24 16:55:00,48.9,20.3,29.64,SW,230,3.0,13.0,32,0.00,,,0.00,Wunderground PWS Mod,2013-10-24 20:55:00,
2013-10-24 17:00:00,48.9,20.3,29.64,WSW,257,4.0,11.0,32,0.00,,,0.00,Wunderground PWS Mod,2013-10-24 21:00:00,
2013-10-24 17:05:00,48.8,20.9,29.64,NW,312,4.0,11.0,33,0.00,,,0.00,Wunderground PWS Mod,2013-10-24 21:05:00,
2013-10-24 17:10:00,48.6,20.0,29.65,SW,230,2.0,11.0,32,0.00,,,0.00,Wunderground PWS Mod,2013-10-24 21:10:00,
2013-10-24 17:15:00,48.6,20.0,29.65,SW,233,3.0,12.0,32,0.00,,,0.00,Wunderground PWS Mod,2013-10-24 21:15:00,
2013-10-24 17:20:00,48.5,21.4,29.65,WSW,256,2.0,12.0,34,0.00,,,0.00,Wunderground PWS Mod,2013-10-24 21:20:00,
2013-10-24 17:25:00,48.3,20.5,29.65,SW,236,3.0,12.0,33,0.00,,,0.00,Wunderground PWS Mod,2013-10-24 21:25:00,
2013-10-24 17:30:00,48.2,21.1,29.65,West,278,3.0,14.0,34,0.00,,,0.00,Wunderground PWS Mod,2013-10-24 21:30:00,
2013-10-24 17:35:00,48.0,21.6,29.65,WSW,243,2.0,14.0,35,0.00,,,0.00,Wunderground PWS Mod,2013-10-24 21:35:00,
2013-10-24 17:40:00,47.7,20.7,29.65,NW,319,1.0,14.0,34,0.00,,,0.00,Wunderground PWS Mod,2013-10-24 21:40:00,
2013-10-24 17:45:00,47.6,21.9,29.65,West,263,1.0,11.0,36,0.00,,,0.00,Wunderground PWS Mod,2013-10-24 21:45:00,
2013-10-24 17:50:00,47.3,22.3,29.65,West,263,1.0,11.0,37,0.00,,,0.00,Wunderground PWS Mod,2013-10-24 21:50:00,
2013-10-24 17:55:00,47.0,23.3,29.67,West,263,0.0,11.0,39,0.00,,,0.00,Wunderground PWS Mod,2013-10-24 21:55:00,
2013-10-24 18:00:00,46.5,22.8,29.67,West,263,0.0,0.0,39,0.00,,,0.00,Wunderground PWS Mod,2013-10-24 22:00:00,
2013-10-24 18:05:00,46.2,23.2,29.67,West,263,0.0,0.0,40,0.00,,,0.00,Wunderground PWS Mod,2013-10-24 22:05:00,
2013-10-24 18:10:00,46.0,23.6,29.67,West,267,0.0,0.0,41,0.00,,,0.00,Wunderground PWS Mod,2013-10-24 22:10:00,
2013-10-24 18:15:00,45.7,23.3,29.68,West,270,0.0,2.0,41,0.00,,,0.00,Wunderground PWS Mod,2013-10-24 22:15:00,
2013-10-24 18:20:00,45.7,23.3,29.67,West,263,0.0,3.0,41,0.00,,,0.00,Wunderground PWS Mod,2013-10-24 22:20:00,
2013-10-24 18:25:00,45.5,23.7,29.68,West,261,0.0,3.0,42,0.00,,,0.00,Wunderground PWS Mod,2013-10-24 22:25:00,
2013-10-24 18:30:00,45.5,23.1,29.68,WSW,251,0.0,2.0,41,0.00,,,0.00,Wunderground PWS Mod,2013-10-24 22:30:00,
2013-10-24 18:35:00,45.4,24.2,29.68,West,264,0.0,2.0,43,0.00,,,0.00,Wunderground PWS Mod,2013-10-24 22:35:00,
2013-10-24 18:40:00,45.2,24.0,29.68,WSW,258,0.0,2.0,43,0.00,,,0.00,Wunderground PWS Mod,2013-10-24 22:40:00,
2013-10-24 18:45:00,45.1,23.9,29.68,WSW,258,0.0,3.0,43,0.00,,,0.00,Wunderground PWS Mod,2013-10-24 22:45:00,
2013-10-24 18:50:00,44.9,24.3,29.69,WSW,258,0.0,3.0,44,0.00,,,0.00,Wunderground PWS Mod,2013-10-24 22:50:00,
2013-10-24 18:55:00,44.6,24.5,29.69,WSW,258,0.0,3.0,45,0.00,,,0.00,Wunderground PWS Mod,2013-10-24 22:55:00,
2013-10-24 19:00:00,44.5,24.5,29.69,WSW,258,0.0,0.0,45,0.00,,,0.00,Wunderground PWS Mod,2013-10-24 23:00:00,
2013-10-24 19:05:00,44.2,24.7,29.69,WSW,258,0.0,0.0,46,0.00,,,0.00,Wunderground PWS Mod,2013-10-24 23:05:00,
2013-10-24 19:10:00,44.1,24.6,29.69,WSW,258,0.0,0.0,46,0.00,,,0.00,Wunderground PWS Mod,2013-10-24 23:10:00,
2013-10-24 19:15:00,44.1,24.6,29.69,WSW,258,0.0,1.0,46,0.00,,,0.00,Wunderground PWS Mod,2013-10-24 23:15:00,
2013-10-24 19:20:00,43.9,24.9,29.70,WSW,258,0.0,1.0,47,0.00,,,0.00,Wunderground PWS Mod,2013-10-24 23:20:00,
2013-10-24 19:25:00,43.8,24.9,29.70,WSW,258,0.0,3.0,47,0.00,,,0.00,Wunderground PWS Mod,2013-10-24 23:25:00,
2013-10-24 19:30:00,43.8,24.9,29.70,WSW,257,0.0,7.0,47,0.00,,,0.00,Wunderground PWS Mod,2013-10-24 23:30:00,
2013-10-24 19:35:00,43.6,24.7,29.70,WSW,257,0.0,7.0,47,0.00,,,0.00,Wunderground PWS Mod,2013-10-24 23:35:00,
2013-10-24 19:40:00,43.5,25.1,29.70,WSW,257,0.0,7.0,48,0.00,,,0.00,Wunderground PWS Mod,2013-10-24 23:40:00,
2013-10-24 19:45:00,43.2,24.8,29.70,WSW,257,0.0,0.0,48,0.00,,,0.00,Wunderground PWS Mod,2013-10-24 23:45:00,
2013-10-24 19:50:00,43.1,25.2,29.70,WSW,257,0.0,0.0,49,0.00,,,0.00,Wunderground PWS Mod,2013-10-24 23:50:00,
2013-10-24 20:00:00,42.6,25.7,29.70,WSW,257,0.0,0.0,51,0.00,,,0.00,Wunderground PWS Mod,2013-10-25 00:00:00,
2013-10-24 20:10:00,42.2,25.3,29.70,WSW,257,0.0,0.0,51,0.00,,,0.00,Wunderground PWS Mod,2013-10-25 00:10:00,
2013-10-24 20:15:00,42.1,25.3,29.70,WSW,257,0.0,0.0,51,0.00,,,0.00,Wunderground PWS Mod,2013-10-25 00:15:00,
2013-10-24 20:20:00,41.9,25.5,29.70,WSW,257,0.0,0.0,52,0.00,,,0.00,Wunderground PWS Mod,2013-10-25 00:20:00,
2013-10-24 20:25:00,41.8,25.4,29.70,WSW,257,0.0,0.0,52,0.00,,,0.00,Wunderground PWS Mod,2013-10-25 00:25:00,
2013-10-24 20:30:00,41.6,25.7,29.70,WSW,257,0.0,1.0,53,0.00,,,0.00,Wunderground PWS Mod,2013-10-25 00:30:00,
2013-10-24 20:40:00,41.3,25.9,29.71,WSW,257,0.0,1.0,54,0.00,,,0.00,Wunderground PWS Mod,2013-10-25 00:40:00,
2013-10-24 20:45:00,41.2,25.8,29.71,WSW,257,0.0,0.0,54,0.00,,,0.00,Wunderground PWS Mod,2013-10-25 00:45:00,
2013-10-24 20:50:00,41.1,26.1,29.71,WSW,257,0.0,0.0,55,0.00,,,0.00,Wunderground PWS Mod,2013-10-25 00:50:00,
2013-10-24 20:55:00,40.9,26.0,29.71,WSW,257,0.0,0.0,55,0.00,,,0.00,Wunderground PWS Mod,2013-10-25 00:55:00,
2013-10-24 21:00:00,40.6,26.1,29.71,WSW,257,0.0,0.0,56,0.00,,,0.00,Wunderground PWS Mod,2013-10-25 01:00:00,
2013-10-24 21:05:00,40.5,26.0,29.72,WSW,257,0.0,0.0,56,0.00,,,0.00,Wunderground PWS Mod,2013-10-25 01:05:00,
2013-10-24 21:10:00,40.3,25.8,29.72,WSW,257,0.0,0.0,56,0.00,,,0.00,Wunderground PWS Mod,2013-10-25 01:10:00,
2013-10-24 21:15:00,40.3,26.3,29.72,WSW,257,0.0,0.0,57,0.00,,,0.00,Wunderground PWS Mod,2013-10-25 01:15:00,
2013-10-24 21:20:00,40.2,26.2,29.72,WSW,257,0.0,0.0,57,0.00,,,0.00,Wunderground PWS Mod,2013-10-25 01:20:00,
2013-10-24 21:25:00,40.2,26.2,29.72,WSW,257,0.0,0.0,57,0.00,,,0.00,Wunderground PWS Mod,2013-10-25 01:25:00,
2013-10-24 21:30:00,40.1,26.1,29.72,WSW,257,0.0,1.0,57,0.00,,,0.00,Wunderground PWS Mod,2013-10-25 01:30:00,
2013-10-24 21:35:00,40.1,26.1,29.72,WSW,257,0.0,1.0,57,0.00,,,0.00,Wunderground PWS Mod,2013-10-25 01:35:00,
2013-10-24 21:40:00,39.9,25.9,29.72,WSW,257,0.0,1.0,57,0.00,,,0.00,Wunderground PWS Mod,2013-10-25 01:40:00,
2013-10-24 21:45:00,40.1,26.1,29.72,WSW,257,0.0,0.0,57,0.00,,,0.00,Wunderground PWS Mod,2013-10-25 01:45:00,
2013-10-24 21:55:00,40.1,26.1,29.73,WSW,257,0.0,0.0,57,0.00,,,0.00,Wunderground PWS Mod,2013-10-25 01:55:00,
2013-10-24 22:00:00,40.2,25.7,29.73,WSW,257,0.0,0.0,56,0.00,,,0.00,Wunderground PWS Mod,2013-10-25 02:00:00,
2013-10-24 22:05:00,40.3,25.8,29.73,WSW,257,0.0,0.0,56,0.00,,,0.00,Wunderground PWS Mod,2013-10-25 02:05:00,
2013-10-24 22:10:00,40.5,26.0,29.73,WSW,257,0.0,0.0,56,0.00,,,0.00,Wunderground PWS Mod,2013-10-25 02:10:00,
2013-10-24 22:15:00,40.6,25.7,29.73,WSW,257,0.0,1.0,55,0.00,,,0.00,Wunderground PWS Mod,2013-10-25 02:15:00,
2013-10-24 22:25:00,40.6,25.7,29.73,WSW,251,0.0,1.0,55,0.00,,,0.00,Wunderground PWS Mod,2013-10-25 02:25:00,
2013-10-24 22:30:00,40.6,25.7,29.73,WSW,251,0.0,3.0,55,0.00,,,0.00,Wunderground PWS Mod,2013-10-25 02:30:00,
2013-10-24 22:35:00,40.5,26.0,29.73,WSW,251,0.0,3.0,56,0.00,,,0.00,Wunderground PWS Mod,2013-10-25 02:35:00,
2013-10-24 22:40:00,40.5,26.0,29.73,WSW,251,0.0,3.0,56,0.00,,,0.00,Wunderground PWS Mod,2013-10-25 02:40:00,
2013-10-24 22:45:00,40.3,25.8,29.73,WSW,251,0.0,1.0,56,0.00,,,0.00,Wunderground PWS Mod,2013-10-25 02:45:00,
2013-10-24 22:50:00,40.3,26.3,29.73,SW,236,0.0,1.0,57,0.00,,,0.00,Wunderground PWS Mod,2013-10-25 02:50:00,
2013-10-24 22:55:00,40.3,26.3,29.73,WSW,247,0.0,1.0,57,0.00,,,0.00,Wunderground PWS Mod,2013-10-25 02:55:00,
2013-10-24 23:00:00,40.3,26.3,29.73,WSW,243,0.0,3.0,57,0.00,,,0.00,Wunderground PWS Mod,2013-10-25 03:00:00,
2013-10-24 23:05:00,40.3,26.3,29.73,WSW,243,0.0,3.0,57,0.00,,,0.00,Wunderground PWS Mod,2013-10-25 03:05:00,
2013-10-24 23:10:00,40.2,26.6,29.73,WSW,243,0.0,3.0,58,0.00,,,0.00,Wunderground PWS Mod,2013-10-25 03:10:00,
2013-10-24 23:15:00,40.1,26.5,29.73,WSW,243,0.0,0.0,58,0.00,,,0.00,Wunderground PWS Mod,2013-10-25 03:15:00,
2013-10-24 23:20:00,39.9,26.3,29.73,WNW,285,0.0,0.0,58,0.00,,,0.00,Wunderground PWS Mod,2013-10-25 03:20:00,
2013-10-24 23:25:00,39.8,26.6,29.74,WNW,285,0.0,0.0,59,0.00,,,0.00,Wunderground PWS Mod,2013-10-25 03:25:00,
2013-10-24 23:30:00,39.6,26.4,29.74,WNW,285,0.0,0.0,59,0.00,,,0.00,Wunderground PWS Mod,2013-10-25 03:30:00,
2013-10-24 23:40:00,39.2,26.5,29.73,WNW,285,0.0,0.0,60,0.00,,,0.00,Wunderground PWS Mod,2013-10-25 03:40:00,
2013-10-24 23:45:00,39.1,26.8,29.73,WNW,285,0.0,0.0,61,0.00,,,0.00,Wunderground PWS Mod,2013-10-25 03:45:00,
2013-10-24 23:50:00,38.9,26.6,29.73,WNW,285,0.0,0.0,61,0.00,,,0.00,Wunderground PWS Mod,2013-10-25 03:50:00,
2013-10-24 23:55:00,38.6,26.7,29.74,WNW,285,0.0,0.0,62,0.00,,,0.00,Wunderground PWS Mod,2013-10-25 03:55:00,